Theta_e
322 322 321 321 320 320 321 321 321 319 317 317 316 318 318 318 317 305 299 307 312 319 319 309 308 310 310 308 309 307 295 291 291 292 292 297 296 298 300 300 305 307 306 315 321
321 322 322 321 320 320 319 320 321 320 318 317 317 318 318 316 306 300 312 315 316 318 306 304 303 305 302 303 303 300 294 292 294 294 293 295 296 295 295 299 301 306 310 314 318
321 321 321 321 320 319 319 320 321 320 319 319 318 318 316 311 302 298 318 317 316 315 306 305 305 304 300 301 299 298 293 295 294 295 294 295 294 296 294 293 295 295 306 311 313
320 321 321 320 319 319 319 319 320 319 319 319 319 317 314 306 292 301 318 319 318 311 306 304 303 300 297 295 299 293 296 297 296 296 295 293 295 293 292 292 299 302 303 311 310
319 319 320 319 317 317 318 318 318 319 319 319 318 315 308 298 296 306 316 312 308 307 303 301 300 300 295 296 297 294 294 296 296 296 294 296 293 291 291 294 295 306 304 308 309
318 318 318 316 316 317 316 317 317 318 317 317 316 315 306 292 304 307 306 306 306 305 302 302 299 300 297 296 294 296 295 295 296 296 296 293 292 292 291 292 295 304 306 309 310
317 318 317 317 317 316 316 316 317 315 314 314 313 306 299 295 306 307 307 306 307 305 302 303 303 300 299 295 298 296 292 294 294 295 294 294 291 290 291 294 293 298 304 308 311
316 316 315 315 315 315 314 315 316 312 313 313 312 308 296 306 306 305 307 307 309 308 306 305 305 301 298 298 296 292 291 287 293 294 294 294 287 292 292 291 294 293 301 305 308
316 315 315 315 314 313 313 315 315 313 312 314 309 307 295 310 302 305 306 303 306 307 308 305 305 299 299 293 292 293 285 288 290 294 292 292 288 295 295 294 292 294 293 299 302
315 314 314 315 315 314 314 313 314 313 309 306 305 302 300 297 302 303 305 306 304 305 305 304 301 294 292 291 281 284 284 289 287 290 290 288 290 292 293 294 292 292 292 294 295
314 313 313 314 313 315 315 312 307 301 301 296 296 297 297 301 305 301 303 304 306 302 295 299 290 285 288 290 290 290 288 288 290 290 286 287 285 288 289 289 288 290 291 292 294
313 313 313 313 313 315 312 301 299 302 294 300 299 299 300 300 296 298 303 299 297 293 299 293 285 290 292 292 291 289 287 284 288 290 286 285 283 285 287 287 287 287 288 290 292
311 311 312 313 313 311 304 301 307 306 297 295 299 296 297 299 294 294 298 299 293 289 290 287 288 292 291 286 288 285 282 281 281 285 286 282 282 283 287 288 288 289 288 289 290
310 310 311 313 310 307 302 306 308 306 287 289 293 296 299 299 293 298 298 296 293 285 290 287 291 290 288 285 285 282 285 284 283 279 275 281 275 280 283 284 286 286 285 286 288
310 308 310 313 309 303 303 307 308 303 278 289 292 301 299 293 292 294 298 296 289 286 288 283 284 284 282 284 286 282 285 282 280 277 276 277 274 278 283 281 282 283 285 285 287
310 307 310 309 308 304 307 308 303 288 277 282 293 291 290 292 292 295 294 296 294 289 288 284 288 285 284 286 286 287 281 280 278 278 273 269 271 275 278 281 281 283 284 285 285
310 306 304 305 301 305 307 303 287 280 288 283 284 290 286 285 288 289 288 285 282 281 280 283 282 285 286 283 286 283 281 276 273 274 275 265 271 276 280 282 282 282 282 283 284
309 306 303 301 304 305 304 292 280 281 283 289 288 287 283 284 285 287 285 283 285 284 281 277 278 281 284 280 278 279 277 274 266 270 272 266 268 276 282 283 283 283 282 283 283
308 308 305 300 303 302 296 284 283 285 289 286 287 283 283 284 282 285 282 282 282 282 279 277 280 281 282 283 281 280 275 276 269 262 266 273 278 279 280 279 281 280 281 281 282
305 305 302 301 302 303 286 284 282 289 290 288 282 282 279 280 283 282 281 283 283 283 282 278 274 279 281 282 280 280 279 274 274 265 264 272 270 275 273 271 275 278 278 279 281
306 299 302 301 302 291 285 283 283 290 291 286 283 280 281 280 280 280 279 282 285 284 283 280 277 278 278 275 276 275 275 275 275 275 268 266 273 277 270 271 270 271 278 273 274
302 287 302 301 288 285 284 283 288 288 291 289 287 284 282 281 280 278 279 281 286 283 279 281 280 272 278 279 280 277 278 279 272 268 271 271 270 275 271 271 271 272 276 276 274
300 298 303 303 286 284 284 283 287 286 285 284 283 285 284 279 277 280 280 285 286 283 280 281 277 269 276 275 276 275 278 278 274 276 269 267 271 273 273 271 271 270 271 273 275
300 287 289 292 293 288 283 283 282 287 286 286 284 285 282 276 280 276 280 283 284 283 287 285 279 273 272 273 273 272 276 277 273 268 272 273 274 268 270 268 268 268 270 272 272
298 288 289 284 287 285 285 284 282 280 285 286 282 283 281 275 278 272 280 280 284 287 283 282 270 275 275 275 273 272 272 273 272 273 269 274 269 267 266 266 268 269 273 274 275
296 293 289 285 286 284 285 283 282 282 284 282 280 283 284 276 280 278 279 279 279 282 281 281 270 270 266 276 275 271 275 275 273 274 273 275 274 268 268 270 270 273 272 274 275
293 292 293 288 286 285 287 284 283 284 284 285 285 283 282 282 284 284 284 283 280 280 280 276 272 267 266 270 269 267 270 271 272 271 270 266 266 267 266 270 271 272 274 275 274
Wind_Speed
11 11 11 12 13 14 15 16 15 14 13 12 11 11 12 12 8 14 13 10 11 18 18 10 6 3 5 3 2 2 2 2 5 6 4 7 4 2 1 1 5 5 5 6 11
10 11 12 12 12 14 15 15 15 14 12 12 11 10 9 10 2 17 8 15 14 13 8 12 9 9 2 2 2 3 3 6 7 8 7 5 7 6 4 6 6 7 8 6 5
10 11 12 12 12 14 14 14 14 14 12 10 10 9 8 7 0 10 17 17 14 11 6 5 8 6 5 6 6 6 5 4 9 8 7 6 4 6 7 3 9 7 7 6 7
11 13 13 13 14 14 14 13 14 13 12 11 10 10 7 5 3 11 15 15 14 8 6 5 5 1 4 5 2 5 7 8 6 4 5 6 7 7 4 4 5 7 6 6 4
11 13 14 14 15 15 14 14 12 11 11 10 10 10 5 8 6 12 12 11 8 6 7 6 9 5 6 4 7 8 5 6 3 5 5 7 5 2 4 7 1 5 1 6 3
11 14 13 15 14 15 16 14 11 8 9 11 11 10 2 8 7 11 9 8 10 9 10 11 6 7 7 7 8 3 8 6 4 7 3 5 5 3 4 4 1 4 5 6 5
13 12 13 13 15 15 16 14 11 8 7 9 11 4 16 7 6 10 9 2 5 7 5 7 7 6 6 5 3 1 5 4 7 6 4 7 2 4 5 3 3 3 5 5 7
12 13 13 14 15 16 15 13 10 8 9 9 9 2 6 2 4 13 11 5 8 4 3 4 4 4 4 2 4 3 2 3 4 9 2 6 2 4 4 2 6 3 7 6 8
11 12 14 15 14 12 12 13 10 7 7 10 4 2 5 2 7 10 8 6 9 1 1 3 1 3 2 3 3 6 2 5 3 4 5 3 5 2 5 4 3 6 6 7 8
10 12 13 13 14 13 11 4 11 5 5 2 9 3 7 8 8 7 8 6 4 7 2 4 6 6 8 8 3 5 4 5 4 5 5 8 6 10 10 9 6 5 6 9 8
12 12 14 11 14 14 8 2 2 7 14 7 4 5 5 10 6 13 8 7 7 5 5 5 10 8 8 6 3 5 4 6 6 3 6 7 7 6 9 11 11 10 12 9 9
11 13 14 13 11 15 5 6 4 3 8 7 7 5 4 6 5 19 16 7 9 7 1 7 8 7 6 9 3 9 4 6 6 4 5 7 8 9 9 8 8 9 10 9 10
14 12 13 14 10 4 8 6 3 3 1 5 3 5 5 6 6 12 11 5 6 10 12 8 5 7 5 9 9 8 4 5 4 11 1 7 4 7 5 9 9 10 9 10 7
17 14 12 12 3 3 4 4 4 4 6 11 8 5 3 1 4 3 4 0 6 2 5 7 7 7 6 5 7 1 5 6 6 7 2 6 2 4 8 9 10 9 9 9 9
17 19 13 13 2 4 4 4 4 1 6 10 7 4 6 6 6 7 2 5 5 4 1 2 4 5 6 2 4 1 4 4 1 1 4 5 4 5 9 7 8 8 9 9 9
14 17 15 4 4 2 4 5 2 7 3 6 5 8 6 7 3 7 4 6 4 1 7 4 1 4 4 4 3 7 3 2 2 2 3 4 4 4 2 5 6 6 9 9 9
11 10 8 4 3 6 4 1 7 8 3 5 4 5 4 6 6 6 4 7 5 6 6 1 2 2 4 4 2 5 4 4 6 3 6 3 2 4 7 9 9 9 9 9 9
8 7 4 3 4 5 3 6 9 1 3 1 2 5 5 8 4 7 3 4 9 6 2 4 5 5 8 5 3 5 2 4 4 3 5 4 6 3 8 9 9 8 7 8 9
10 2 2 3 4 2 5 7 3 2 2 2 1 4 5 3 2 5 5 3 4 7 5 5 3 2 5 3 3 4 4 2 3 1 2 5 1 2 6 7 7 7 8 9 9
3 3 2 5 4 1 8 3 1 3 4 2 3 2 2 6 5 5 5 3 3 3 1 1 4 1 0 1 2 2 1 3 2 4 6 6 4 6 5 0 5 7 7 7 7
2 3 1 4 2 7 5 2 2 1 4 4 4 3 2 1 2 2 0 1 2 2 2 3 3 3 2 3 4 1 1 2 1 2 4 5 7 4 5 3 1 5 6 3 6
1 4 3 3 7 4 3 3 3 3 1 2 3 2 1 1 2 0 1 1 2 1 2 2 1 4 6 3 2 1 3 4 4 6 4 3 9 2 5 4 2 6 5 5 4
1 2 0 2 4 2 2 3 2 2 2 0 1 2 2 1 2 1 1 2 1 1 0 2 2 4 5 2 1 3 5 4 2 0 8 3 9 3 1 3 2 4 6 6 5
1 4 6 6 1 6 4 1 1 2 1 1 1 1 2 2 1 4 2 2 2 2 2 2 3 7 7 7 2 4 5 6 7 3 5 13 12 2 4 3 6 6 5 4 5
4 2 4 3 3 3 2 5 3 3 2 3 2 5 5 2 1 3 3 0 3 4 1 1 4 3 6 7 5 5 9 7 10 11 7 19 4 2 2 4 6 6 7 7 8
2 3 1 2 2 2 2 6 7 3 7 4 4 2 6 5 3 1 2 3 2 2 3 2 4 1 6 8 3 7 19 11 13 15 14 19 20 3 5 4 5 8 6 8 9
1 1 1 1 1 2 3 3 5 7 2 2 4 4 5 3 3 3 3 2 1 4 5 3 1 2 7 2 7 8 9 6 5 4 6 4 6 2 5 6 7 7 8 9 8
Wind_Direction
12 8 3 8 7 1 359 356 358 356 356 353 353 349 338 336 307 54 42 328 322 323 312 267 260 295 246 91 344 300 294 99 32 13 74 43 340 87 238 158 72 45 49 77 119
19 4 358 2 4 360 357 352 351 350 350 348 348 340 335 331 317 52 357 347 336 332 345 351 17 316 94 97 16 3 12 44 21 21 24 38 9 337 316 151 129 116 104 110 115
20 1 353 351 358 356 352 349 346 343 342 341 337 329 323 315 269 18 355 344 335 320 323 291 287 293 74 35 4 14 51 85 48 22 355 348 11 346 332 336 40 31 104 124 135
9 357 349 347 350 350 345 341 340 339 337 333 330 319 321 253 50 350 350 335 313 284 289 295 267 329 44 59 355 112 46 31 29 11 3 17 310 313 36 103 24 26 32 115 139
358 353 347 346 344 341 334 333 336 339 333 330 324 319 298 60 27 336 343 338 342 320 29 353 25 339 55 67 52 64 84 75 85 39 29 323 280 34 284 64 64 73 33 120 129
358 349 347 344 336 331 336 334 331 338 334 328 326 306 4 69 314 347 341 356 8 350 43 31 22 321 66 35 37 53 70 73 37 5 83 351 303 17 108 56 242 142 129 105 125
0 346 338 335 331 333 336 337 333 337 348 336 335 358 62 45 328 353 347 345 2 5 47 27 343 40 314 115 324 149 120 126 20 347 14 308 293 223 85 107 289 130 106 105 146
356 347 341 336 333 338 337 327 331 332 342 336 313 32 76 193 326 12 7 21 351 24 34 7 318 88 33 155 205 220 256 130 34 358 350 336 172 121 127 20 335 72 128 122 100
354 347 341 338 339 339 333 315 302 292 303 298 324 5 46 17 7 350 11 345 300 70 331 248 31 22 347 255 57 348 75 20 139 53 319 314 300 83 179 222 264 325 112 95 93
351 345 349 348 333 337 325 296 316 10 293 267 21 91 37 339 326 313 347 314 299 284 217 11 38 58 22 30 68 359 2 342 46 1 348 298 289 345 336 25 29 355 106 98 88
346 347 353 352 337 332 324 256 307 12 37 62 1 71 2 325 264 1 342 304 346 29 41 29 58 44 17 11 316 319 339 345 11 47 351 344 340 32 30 40 31 24 33 50 87
357 349 349 346 347 347 360 60 34 355 71 49 26 84 27 317 340 6 345 57 44 43 58 49 58 2 310 359 2 11 345 360 289 36 343 348 327 59 52 57 49 41 28 43 23
354 352 348 341 325 30 69 54 337 310 292 54 50 27 334 327 42 348 4 15 80 34 36 70 13 316 359 27 6 55 26 353 311 328 198 318 149 93 92 73 59 48 47 31 50
356 350 346 337 43 322 54 4 336 311 76 346 360 35 328 336 68 17 2 351 51 76 32 57 3 18 31 66 360 1 7 319 323 2 291 29 205 152 133 81 64 47 40 37 28
356 351 339 13 344 43 359 325 322 268 61 326 341 308 306 57 298 21 305 18 77 38 193 272 7 7 51 2 328 359 328 293 351 282 23 351 65 171 127 80 60 37 40 30 26
358 358 338 348 75 29 317 308 266 45 29 330 326 355 17 6 45 329 30 55 355 10 46 78 229 30 332 295 257 284 336 243 276 159 19 231 111 230 82 112 78 48 36 33 31
355 1 26 336 15 332 310 247 40 85 352 317 331 353 314 356 4 9 54 36 42 31 14 180 43 65 348 310 212 345 4 341 348 355 225 276 357 247 106 77 60 41 34 25 26
342 335 47 55 333 328 292 52 66 327 246 35 326 298 45 1 30 336 8 54 41 360 63 39 332 15 343 46 329 354 52 134 264 298 298 329 256 259 112 66 60 50 46 24 19
314 179 125 9 327 281 72 45 164 185 23 325 277 27 340 25 53 14 44 55 46 17 74 20 295 111 44 356 24 326 38 328 81 134 43 236 259 72 94 56 39 40 33 21 8
326 301 73 326 331 13 71 127 149 353 343 307 33 49 354 348 19 42 13 357 89 67 243 126 315 50 151 283 50 135 354 31 360 339 296 272 270 234 215 25 355 16 13 8 344
321 7 29 343 294 50 85 190 284 13 7 27 28 22 40 335 341 330 336 138 28 109 35 110 105 277 111 205 181 39 38 33 67 147 227 304 264 248 144 159 260 308 329 315 287
333 24 0 311 43 36 93 161 273 117 79 36 324 83 200 333 271 226 303 122 35 158 57 79 123 261 229 98 11 293 219 193 141 268 235 200 268 14 134 147 177 275 288 279 279
28 301 188 321 88 56 352 329 338 109 129 46 39 23 74 167 5 239 276 114 87 24 115 133 262 334 312 344 276 205 200 196 81 149 215 183 265 239 84 88 298 280 300 296 313
342 10 331 40 315 121 143 147 38 352 348 131 131 70 175 21 343 301 288 110 90 46 12 350 276 191 210 219 139 255 219 210 158 203 257 234 276 259 282 321 308 305 299 301 315
6 284 163 319 340 105 133 147 148 208 285 171 312 238 173 179 237 240 240 234 147 131 193 76 238 327 271 269 203 231 250 235 209 236 228 275 258 274 288 310 294 284 310 323 300
135 134 266 149 276 178 152 206 181 220 150 216 193 217 180 186 213 260 160 231 215 151 217 99 267 101 277 270 324 271 261 247 231 256 258 267 278 202 264 305 302 291 285 293 280
327 43 82 142 162 99 230 180 208 146 194 23 202 143 224 237 33 45 0 334 354 171 187 165 187 37 264 351 325 300 238 196 204 199 160 209 227 324 307 309 300 288 289 277 289